Have a Safe July 4th! 

Flight Track Log - Related Links

Times and Time Zones

All times are in EDT time to prevent confusion due to time zone crossing. See the SWA2236 flight status page for this flight to view local times or setup timezone preferences in your user account.

Time Position Orientation Groundspeed Altitude Reporting Facility
EDT Latitude Longitude Course Direction KTS MPH feet Rate Location/Type
Sun 12:29:24 PM 37.7333 -122.2500 302° West 160 184 1,400  Level Northern Cal TRACON
Sun 12:30:24 PM 37.7667 -122.3167 302° West 226 260 3,800 2,700 Climbing Northern Cal TRACON
Sun 12:31:24 PM 37.7833 -122.3833 288° West 233 268 6,800 2,800 Climbing Northern Cal TRACON
Sun 12:32:24 PM 37.7333 -122.4167 208° Southwest 273 314 9,400 2,643 Climbing Northern Cal TRACON
Sun 12:34:12 PM 37.5867 -122.4339 185° South 338 389 14,200 3,000 Climbing Oakland Center
Sun 12:35:14 PM 37.5056 -122.3256 133° Southeast 357 411 17,900 3,073 Climbing Oakland Center
Sun 12:36:15 PM 37.4642 -122.2039 113° Southeast 392 451 20,500 2,508 Climbing Oakland Center
Sun 12:37:16 PM 37.4331 -122.0664 106° East 409 471 23,000 2,341 Climbing Oakland Center
Sun 12:38:18 PM 37.4003 -121.9258 106° East 421 484 25,300 2,049 Climbing Oakland Center
Sun 12:39:19 PM 37.3661 -121.7797 106° East 434 499 27,200 2,066 Climbing Oakland Center
Sun 12:40:20 PM 37.3297 -121.6192 106° East 454 522 29,500 2,293 Climbing Oakland Center
Sun 12:41:22 PM 37.2936 -121.4697 107° East 451 519 31,900 1,707 Climbing Oakland Center
Sun 12:42:23 PM 37.2592 -121.3206 106° East 447 514 33,000 829 Climbing Oakland Center
Sun 12:43:25 PM 37.2211 -121.1711 108° East 450 518 33,600 1,220 Climbing Oakland Center
Sun 12:44:26 PM 37.1847 -121.0147 106° East 464 534 35,500 1,659 Climbing Oakland Center
Sun 12:45:28 PM 37.1400 -120.8342 107° East 458 527 37,000 732 Climbing Oakland Center
Sun 12:46:29 PM 37.1039 -120.6808 106° East 459 528 37,000  Level Oakland Center
Sun 12:47:31 PM 37.0911 -120.5222 96° East 459 528 37,000  Level Oakland Center
Sun 12:48:32 PM 37.0822 -120.3628 94° East 461 531 37,000  Level Oakland Center
Sun 12:49:33 PM 37.0719 -120.2033 95° East 460 529 37,000  Level Oakland Center
Sun 12:50:35 PM 37.0603 -120.0306 95° East 458 527 37,000  Level Oakland Center
Sun 12:51:36 PM 37.0494 -119.8725 95° East 456 525 37,000  Level Oakland Center
Sun 12:52:38 PM 37.0389 -119.7153 95° East 455 524 37,000  Level Oakland Center
Sun 12:53:39 PM 37.0283 -119.5567 95° East 456 525 37,000  Level Oakland Center
Sun 12:54:41 PM 37.0175 -119.3994 95° East 454 522 37,000  Level Oakland Center
Sun 12:55:42 PM 37.0053 -119.2400 95° East 458 527 37,000  Level Oakland Center
Sun 12:56:44 PM 36.9939 -119.0811 95° East 459 528 37,000  Level Oakland Center
Sun 12:57:45 PM 36.9806 -118.8922 95° East 455 524 37,000  Level Oakland Center
Sun 12:58:47 PM 36.9692 -118.7361 95° East 452 520 37,000  Level Oakland Center
Sun 12:59:48 PM 36.9569 -118.5786 95° East 455 524 37,000  Level Oakland Center
Sun 01:00:50 PM 36.9450 -118.4333 96° East 458 527 37,000  Level Oakland Center
Sun 01:01:51 PM 36.9322 -118.2775 96° East 454 522 37,000  Level Oakland Center
Sun 01:02:53 PM 36.9178 -118.0928 96° East 448 516 37,000  Level Oakland Center
Sun 01:03:54 PM 36.9061 -117.9381 95° East 449 517 37,000 -537 Level Oakland Center
Sun 01:04:56 PM 36.8919 -117.7814 96° East 454 522 35,900 -1,902 Descending Oakland Center
Sun 01:05:57 PM 36.8789 -117.6275 96° East 449 517 33,100 -2,683 Descending Oakland Center
Sun 01:06:59 PM 36.8656 -117.4708 96° East 454 522 30,400 -2,000 Descending Oakland Center
Sun 01:08:00 PM 36.8528 -117.3164 96° East 451 519 29,000 -683 Descending Oakland Center
Sun 01:09:02 PM 36.8383 -117.1614 97° East 450 518 29,000  Level Oakland Center
Sun 01:10:03 PM 36.7692 -117.0008 118° Southeast 442 509 29,000  Level Oakland Center
Sun 01:11:05 PM 36.7061 -116.8733 122° Southeast 435 501 29,000  Level Oakland Center
Sun 01:12:06 PM 36.6411 -116.7450 122° Southeast 438 504 29,000 -390 Level Oakland Center
Sun 01:13:08 PM 36.5756 -116.6172 123° Southeast 439 505 28,200 -1,510 Descending Oakland Center
Sun 01:14:29 PM 36.4961 -116.4606 122° Southeast 427 491 25,400 -2,184 Descending Los Angeles Center
Sun 01:16:34 PM 36.3622 -116.2031 123° Southeast 401 461 20,700 -2,150 Descending Los Angeles Center
Sun 01:17:36 PM 36.3033 -116.0942 124° Southeast 383 441 18,700 -1,984 Descending Los Angeles Center
Sun 01:18:38 PM 36.2447 -115.9819 123° Southeast 361 415 16,600 -1,306 Descending Los Angeles Center
Sun 01:19:40 PM 36.1950 -115.8850 122° Southeast 336 387 16,000 -726 Descending Los Angeles Center
Sun 01:20:42 PM 36.1606 -115.7761 111° Southeast 317 365 15,100 -919 Descending Los Angeles Center
Sun 01:21:44 PM 36.1281 -115.6756 112° Southeast 316 364 14,100 -704 Descending Los Angeles Center
Sun 01:23:00 PM 36.0684 -115.5318 111° Southeast  Level FlightAware Approximate
Sun 01:23:41 PM 36.0703 -115.4919 111° Southeast 267 307 13,000  Level Los Angeles Center
Sun 01:24:50 PM 36.0428 -115.4100 113° Southeast 258 297 12,200 -1,082 Descending Los Angeles Center
Sun 01:25:43 PM 36.0294 -115.3217 101° East 264 304 10,800 -1,440 Descending Los Angeles Center
Sun 01:26:55 PM 36.0197 -115.2103 96° East 268 308 9,200 -992 Descending Los Angeles Center
Sun 01:27:44 PM 36.0144 -115.1433 96° East 247 284 8,800 -629 Descending Los Angeles Center
Sun 01:28:59 PM 36.0078 -115.0469 95° East 248 285 7,900 -920 Descending Los Angeles Center
Sun 01:30:01 PM 36.0042 -114.9772 94° East 226 260 6,700 -1,290 Descending Los Angeles Center
Sun 01:30:46 PM 36.0314 -114.9436 45° Northeast 209 241 5,600 -1,514 Descending Los Angeles Center
Sun 01:31:48 PM 36.0661 -114.9933 311° West 199 229 4,000 -1,180 Descending Los Angeles Center
Sun 01:32:48 PM 36.0731 -115.0547 278° West 165 190 3,200 -793 Descending Los Angeles Center
Sun 01:33:49 PM 36.0739 -115.1078 271° West 153 176 2,400 -787 Descending Los Angeles Center
Sun 01:36:00 PM 36.0667 -115.1500 270° West  Level FlightAware Approximate

Login

Don't have an account? Register now (free) for customized features, flight alerts, and more!